Location: Berg
(48.4333°N, 13.9167°E)
Time: 03:15:02
(UTC+00:00)

Lacrosse 4 Rocket - Pass Details

Date: 18 September 2020
Orbit: 543 x 615 km, 68.0° (Epoch: 24 October)

Event Time Altitude Azimuth Distance (km) Brightness Sun altitude
Rises 19:20:30 0° 336° (NNW) 2,716 5.7 -21.5°
Reaches altitude 10° 19:23:45 10° 4° (N) 1,822 4.3 -22.0°
Maximum altitude 19:25:47 13° 34° (NE) 1,613 3.6 -22.3°
Enters shadow 19:25:48 13° 35° (NE) 1,613 3.6 -22.3°
